Helicity
70 65 68 60 48 46 45 46 38 52 74 107 134 158 164 129 113 123 102 109 132 99 91 88 113 114 104 119 144 170 154 155 111 114 140 121 129 135
70 65 59 60 73 72 67 62 57 62 84 103 112 125 143 115 129 127 123 124 171 121 101 105 115 117 108 113 134 154 170 147 113 115 117 98 165 207
92 49 59 60 65 72 74 82 83 84 93 94 118 125 136 102 122 112 111 120 142 149 108 101 114 98 95 105 123 115 95 100 110 100 96 110 117 141
124 102 82 59 64 75 83 89 92 94 89 75 74 84 93 95 83 109 97 89 131 167 158 113 75 114 109 98 98 88 88 103 98 91 136 238 212 206
120 95 80 74 58 79 92 94 85 87 80 70 70 61 58 67 74 87 76 77 80 92 101 158 128 109 100 93 92 105 106 77 68 86 110 139 142 144
96 72 83 77 72 77 89 103 86 77 75 68 64 72 79 77 81 76 81 72 77 77 95 108 115 137 102 81 75 85 89 83 96 82 77 93 109 115
88 91 85 87 89 113 102 92 74 71 79 67 66 76 91 88 71 59 62 67 73 71 70 83 85 80 73 92 81 75 75 72 75 76 73 81 86 87
78 81 89 63 96 112 110 89 69 67 63 66 68 76 70 61 50 50 53 56 53 60 56 51 60 70 72 70 80 91 87 86 83 79 78 78 79 78
72 87 98 82 97 87 99 96 100 111 97 70 74 58 56 54 42 42 38 42 40 41 44 47 51 53 51 65 77 95 99 88 82 79 75 72 75 85
79 92 88 73 72 85 87 94 101 98 102 92 79 67 46 30 31 33 43 47 41 60 54 54 60 58 68 71 79 84 82 80 75 71 70 71 78 90
75 82 75 66 67 81 81 91 96 103 89 89 88 92 99 106 68 40 49 50 50 57 70 62 68 58 71 79 77 76 90 74 82 88 93 95 96 101
72 83 67 63 81 63 75 75 78 56 52 62 74 91 87 81 95 63 42 51 58 65 61 63 70 72 73 91 98 107 100 92 95 116 118 119 122 87
57 72 74 85 63 52 66 70 63 55 62 71 68 59 58 58 57 58 67 58 56 66 60 74 81 92 101 95 102 112 97 86 93 101 112 114 120 102
47 46 61 68 76 88 91 86 78 74 69 68 62 57 54 56 53 52 62 75 90 79 92 98 90 100 109 100 89 86 85 78 79 98 88 90 92 92
35 40 71 86 92 101 90 82 81 67 64 64 61 59 55 48 47 47 62 79 94 100 106 104 88 66 62 48 44 51 57 66 61 33 49 61 65 71
42 51 56 61 72 82 89 90 73 59 55 62 66 64 59 54 63 59 70 81 95 97 91 76 50 48 47 48 66 62 56 57 47 36 49 69 74 60
55 66 49 32 35 62 78 76 67 62 67 68 72 72 68 61 68 78 90 99 99 78 54 59 58 42 37 60 58 51 62 55 44 47 37 75 102 79
55 39 21 3 25 53 69 69 61 63 69 78 79 80 78 72 81 92 95 87 85 58 50 42 47 67 73 57 46 65 70 67 76 78 64 65 116 143
75 65 39 16 35 66 78 81 73 60 70 79 88 87 88 84 94 85 76 85 76 59 52 52 50 63 77 93 68 61 62 87 85 113 103 102 104 133
130 86 68 36 45 71 82 93 83 80 77 86 93 91 93 103 105 99 82 69 49 45 50 51 53 57 60 74 98 143 54 73 98 109 123 108 96 64
126 115 79 77 46 62 87 101 92 80 81 88 90 99 104 117 120 107 76 53 46 38 45 50 41 28 57 82 85 113 123 68 50 81 93 99 94 98
91 100 90 75 78 61 87 110 96 74 86 85 93 99 109 125 108 66 49 41 35 39 44 43 42 53 63 79 94 107 125 137 88 55 53 34 60 73
93 93 86 96 106 78 96 112 93 85 88 94 96 98 116 129 83 54 40 31 39 39 45 54 64 68 72 82 65 95 106 117 80 74 111 62 47 46
Wind_Speed
40 41 42 43 43 43 42 42 45 50 49 42 43 47 54 49 49 46 48 51 55 53 51 41 44 46 47 46 46 49 53 56 57 59 60 60 62 61
40 42 44 46 46 45 45 45 45 49 53 48 54 58 56 49 45 45 48 49 53 49 43 40 41 43 45 46 46 48 50 54 56 56 58 60 60 58
38 40 43 46 49 49 50 50 50 51 61 58 53 52 52 46 43 45 47 47 48 46 40 38 38 40 41 43 46 49 52 53 53 55 57 56 50 50
37 40 45 41 44 45 46 47 48 49 52 58 51 49 49 46 46 46 45 43 42 42 40 38 36 37 41 44 44 46 47 50 52 52 51 49 47 47
36 40 42 42 43 41 41 43 43 44 44 45 46 42 42 42 42 40 40 40 40 40 38 39 37 39 40 43 43 44 46 46 45 45 46 45 47 46
32 35 34 37 38 38 39 40 42 43 40 40 43 42 40 40 39 38 39 39 38 38 37 37 37 39 40 42 42 42 41 39 41 43 44 44 46 46
33 31 32 33 34 36 36 40 40 38 39 40 38 38 38 38 38 37 36 34 36 36 36 37 37 37 40 40 39 37 37 38 41 42 45 48 50 52
29 29 31 30 29 32 32 34 36 36 36 33 33 33 33 34 34 35 33 34 36 37 35 35 34 35 37 38 36 37 38 41 44 47 50 53 55 58
29 27 28 29 28 27 27 33 34 34 32 27 26 28 29 33 31 32 32 31 33 37 35 35 36 36 35 36 37 39 41 44 48 52 54 56 58 59
28 27 27 27 24 22 24 29 29 29 29 28 28 29 31 31 30 30 31 31 33 41 40 39 41 40 37 38 38 40 43 48 52 55 57 58 59 58
27 30 29 27 19 17 21 22 23 24 26 28 30 32 34 36 34 31 36 35 39 41 47 44 43 45 41 39 38 40 46 48 52 55 57 58 59 57
26 29 29 23 18 17 19 18 19 20 21 25 30 34 36 37 38 38 38 39 40 42 46 47 46 47 45 38 37 42 48 50 51 55 58 59 61 58
25 28 28 23 20 20 16 16 19 17 20 25 29 32 36 38 39 41 42 41 41 42 46 44 45 45 43 44 43 44 51 50 50 56 58 61 63 57
24 26 25 21 20 20 19 18 17 18 21 25 30 34 37 39 39 39 40 41 41 39 43 44 42 45 46 46 44 47 51 45 50 59 60 61 60 56
23 25 23 22 21 21 21 20 20 20 21 26 29 32 35 37 38 38 38 38 40 42 44 46 46 44 40 39 43 46 50 49 51 60 61 60 56 53
23 24 23 24 24 25 26 25 22 20 20 23 27 29 32 36 39 39 40 38 41 46 44 49 47 41 40 38 39 45 44 46 55 61 62 58 54 50
25 26 28 33 33 31 28 24 22 20 21 25 25 27 30 34 38 40 40 41 42 47 49 49 50 44 38 36 41 43 48 47 54 61 60 61 54 52
29 31 34 40 36 31 27 23 21 19 22 24 24 25 28 33 36 38 39 40 44 45 46 46 50 48 45 42 35 44 48 54 60 60 57 58 60 60
34 36 39 43 40 33 27 21 21 18 21 22 24 24 27 31 34 37 39 41 42 42 43 45 46 49 51 51 43 40 55 56 58 61 58 58 58 61
34 41 42 45 44 36 27 22 19 17 18 20 21 23 27 30 33 36 37 39 40 40 41 43 47 50 46 49 47 46 50 51 57 61 63 60 56 54
41 42 46 44 44 41 30 22 17 14 15 17 19 23 26 30 33 36 36 36 37 38 40 43 45 46 42 42 49 51 54 53 56 60 63 64 61 57
46 46 45 44 42 42 31 20 16 14 14 15 18 20 25 29 31 29 31 34 36 36 38 40 42 43 44 46 53 55 60 61 63 59 61 58 58 65
45 46 45 40 39 40 30 19 14 12 12 12 15 18 23 26 25 28 31 32 33 34 35 39 42 46 47 51 54 58 62 66 64 68 66 62 57 65
Wind_Direction
305 308 310 310 310 310 311 310 306 303 304 307 308 313 314 315 317 318 318 319 318 319 320 323 323 326 328 327 326 323 320 319 320 319 317 320 318 317
309 309 305 306 308 309 308 307 307 302 300 306 305 308 311 315 319 321 321 324 323 325 327 325 326 327 327 325 327 328 328 326 325 323 321 320 316 318
315 312 312 309 305 305 305 306 306 302 297 303 308 313 314 318 319 321 324 325 326 329 329 330 330 330 330 330 329 327 327 328 329 328 328 326 324 322
319 318 316 317 315 314 312 310 308 307 305 301 308 312 313 316 317 319 321 325 326 328 331 331 333 335 333 334 333 333 334 333 333 333 336 335 336 336
323 321 319 318 317 319 318 316 315 314 313 311 312 319 320 321 321 323 325 327 329 329 330 335 338 337 339 339 339 339 338 339 342 343 341 337 336 335
327 327 328 323 322 322 322 320 318 316 316 314 315 318 320 321 324 322 323 328 329 333 335 336 337 340 342 342 342 342 343 347 348 349 346 343 339 335
324 328 329 327 327 326 326 324 322 320 318 316 320 322 322 322 322 326 327 333 336 336 338 339 339 343 342 343 346 351 351 350 348 345 341 336 331 327
322 327 326 329 333 334 341 341 333 325 323 325 326 328 331 330 335 334 334 330 329 340 340 341 342 342 345 346 349 347 345 343 339 335 331 328 326 323
319 325 325 327 334 342 349 340 337 338 339 346 347 344 344 343 350 346 347 348 346 340 341 339 338 339 341 342 342 340 337 334 331 328 327 326 325 324
320 325 326 327 338 348 349 343 343 350 358 6 9 5 360 355 358 356 354 354 348 341 339 333 335 334 336 336 336 336 333 330 327 326 326 325 325 325
323 318 322 327 348 358 348 346 350 359 9 14 13 7 1 354 351 352 343 341 336 335 335 333 332 330 334 333 336 336 334 332 330 329 328 327 326 327
329 322 325 337 347 345 340 346 350 1 13 8 1 357 353 348 347 346 341 338 336 334 333 332 331 332 332 341 341 337 334 333 333 331 329 327 326 325
333 332 333 341 344 332 347 355 357 22 16 4 355 350 345 342 343 344 346 343 339 336 335 337 334 336 336 333 335 338 335 335 335 331 330 327 325 326
338 342 350 355 342 339 342 0 16 19 6 355 346 340 337 337 342 347 351 352 353 350 345 345 341 338 336 336 336 336 336 342 340 332 332 331 329 329
350 356 2 347 341 339 346 357 3 10 0 345 346 342 340 343 347 349 350 352 351 349 348 346 343 343 347 346 342 341 340 342 344 338 336 337 337 337
354 356 355 331 332 332 333 341 358 7 3 354 349 348 348 345 345 346 344 349 347 343 348 347 348 350 348 349 349 344 346 346 343 341 338 340 342 344
338 339 332 308 309 317 327 344 358 7 3 350 353 350 349 347 345 345 347 347 347 342 342 345 348 352 355 356 352 353 348 349 345 341 342 337 342 344
323 323 315 298 305 316 328 344 356 11 0 351 352 353 351 348 347 347 347 348 347 347 349 352 349 349 352 359 4 353 350 346 341 341 343 341 337 338
314 313 306 294 299 313 325 341 349 6 1 354 350 352 350 348 347 348 348 347 350 351 353 353 354 352 348 346 356 5 348 347 346 342 344 342 339 336
308 304 299 294 297 308 323 332 346 0 3 358 355 351 349 348 349 349 350 350 351 352 352 351 351 349 356 352 353 355 353 351 348 344 341 341 339 337
300 302 293 294 295 302 318 329 344 359 3 2 355 350 349 347 351 351 353 357 356 354 355 354 355 356 2 2 354 353 353 354 349 345 342 339 339 338
294 294 291 292 294 297 311 329 340 355 4 2 354 353 349 352 356 5 5 0 1 3 4 4 3 3 2 358 352 350 348 348 347 347 344 340 337 332
293 291 288 292 295 296 307 321 335 348 2 4 358 356 353 356 7 5 0 5 9 12 13 9 6 2 359 355 351 348 347 346 345 343 341 342 336 332